602  
ASUS44 KLZK 210810  
RWRLZK  
 
WEATHER ROUNDUP FOR ARKANSAS  
NATIONAL WEATHER SERVICE LITTLE ROCK AR  
300 AM CDT FRI JUN 21 2024  
 
NOTE: "FAIR" INDICATES FEW OR NO CLOUDS BELOW 12,000 FEET WITH NO  
SIGNIFICANT WEATHER AND/OR S TO VISIBILITY
.  
 
ARZ001-010-029-103-210900-  
NORTHWEST ARKANSAS  
 
CITY SKY/WX TMP DP RH WIND PRES REMARKS
 
FAYETTEVILLE PTCLDY 71 67 87 CALM 30.24F  
FORT SMITH MOCLDY 76 70 82 E3 30.20S  
HARRISON PTCLDY 70 66 87 CALM 30.25F  
ROGERS PTCLDY 73 68 84 SE3 30.26S  
SILOAM SPGS MOCLDY 73 69 87 SE6 30.24F  
HIGHFILL PTCLDY 74 68 81 SE6 30.24F  

 
 
ARZ004-005-016-210900-  
NORTH CENTRAL ARKANSAS  
 
CITY SKY/WX TMP DP RH WIND PRES REMARKS
 
BATESVILLE CLEAR 68 68 100 NW3 30.22F  
FLIPPIN PTCLDY 69 67 93 MISG 30.23F  
MTN HOME PTCLDY 71 65 81 CALM 30.23S  

 
 
ARZ140-141-210900-  
WEST CENTRAL ARKANSAS  
 
CITY SKY/WX TMP DP RH WIND PRES REMARKS
 
MENA MOCLDY 67 67 100 CALM 30.22S  

 
 
ARZ009-017-025-026-028-210900-  
NORTHEAST ARKANSAS  
 
CITY SKY/WX TMP DP RH WIND PRES REMARKS
 
JONESBORO PTCLDY 74 66 76 NE5 30.20F  
NEWPORT PTCLDY 73 70 90 N3 30.21S  
WALNUT RIDGE PTCLDY 73 73 100 N3 30.21S  
BLYTHEVILLE PTCLDY 74 70 87 CALM 30.20S  

 
 
ARZ032-043-044-210900-  
LITTLE ROCK METRO AREA  
 
CITY SKY/WX TMP DP RH WIND PRES REMARKS
 
LITTLE ROCK PTCLDY 77 69 76 CALM 30.19S  
N LTL ROCK NWS N/A 74 69 83 CALM 30.18F  
BENTON SUNNY 72 72 100 CALM 30.19S  
JACKSONVILLE CLEAR 71 68 90 CALM 30.16F  

 
 
ARZ033-042-122-123-210900-  
REMAINDER OF CENTRAL ARKANSAS  
 
CITY SKY/WX TMP DP RH WIND PRES REMARKS
 
SEARCY CLEAR 70 69 97 CALM 30.20F  
RUSSELLVILLE PTCLDY 71 67 87 CALM 30.20S  
CLINTON PTCLDY 68 68 100 CALM 30.22F FOG  

 
 
ARZ036-210900-  
EAST ARKANSAS  
 
CITY SKY/WX TMP DP RH WIND PRES REMARKS
 
WEST MEMPHIS CLEAR 72 69 90 CALM 30.18F  

 
 
ARZ050-053-066-070-072-073-210900-  
SOUTHWEST ARKANSAS  
 
CITY SKY/WX TMP DP RH WIND PRES REMARKS
 
ARKADELPHIA PTCLDY 70 70 100 CALM 30.19S  
CAMDEN PTCLDY 70 70 100 CALM 30.16S  
TEXARKANA PTCLDY 75 69 81 CALM 30.17F  
MAGNOLIA PTCLDY 68 66 94 CALM 30.15S FOG  
EL DORADO CLEAR 69 68 96 CALM 30.17S  
DE QUEEN MOCLDY 72 71 97 CALM 30.16F  

 
 
ARZ056-057-069-210900-  
SOUTHEAST ARKANSAS  
 
CITY SKY/WX TMP DP RH WIND PRES REMARKS
 
PINE BLUFF CLEAR 74 70 87 CALM 30.18F  
STUTTGART CLEAR 77 71 82 E6 30.19F  
MONTICELLO MOCLDY 72 70 93 CALM 30.17F  
 

 
 
 
 
CLICK HERE TO GO TO PREVIOUS BULLETINS.

The Nexlab AR Page Main Text Page